TimeCDT,TemperatureF,Dew PointF,Humidity,Sea Level PressureIn,VisibilityMPH,Wind Direction,Wind SpeedMPH,Gust SpeedMPH,PrecipitationIn,Events,Conditions,WindDirDegrees,DateUTC
12:15 AM,33.8,32.0,93,30.04,5.0,NNE,3.5,-,N/A,,Overcast,30,2013-10-30 05:15:00
12:35 AM,33.6,32.0,94,30.03,5.0,NE,3.5,-,N/A,,Overcast,40,2013-10-30 05:35:00
12:55 AM,33.8,32.0,93,30.02,5.0,NE,3.5,-,N/A,,Overcast,40,2013-10-30 05:55:00
1:15 AM,33.4,32.0,94,30.00,10.0,NE,3.5,-,N/A,,Overcast,40,2013-10-30 06:15:00
1:35 AM,33.6,32.0,94,30.01,10.0,Calm,Calm,-,N/A,,Overcast,0,2013-10-30 06:35:00
1:55 AM,33.8,32.0,93,29.97,10.0,North,6.9,-,N/A,,Overcast,360,2013-10-30 06:55:00
2:15 AM,33.4,32.0,94,29.96,7.0,NNE,6.9,-,N/A,,Overcast,20,2013-10-30 07:15:00
2:35 AM,33.4,32.0,94,29.96,10.0,North,4.6,-,N/A,,Overcast,10,2013-10-30 07:35:00
2:55 AM,33.8,32.0,93,30.00,10.0,South,3.5,-,N/A,,Overcast,180,2013-10-30 07:55:00
3:15 AM,33.8,32.0,93,29.97,10.0,Calm,Calm,-,N/A,,Overcast,0,2013-10-30 08:15:00
3:35 AM,33.8,32.0,93,29.97,5.0,Calm,Calm,-,N/A,,Overcast,0,2013-10-30 08:35:00
3:55 AM,33.8,32.0,93,29.93,4.0,NNE,3.5,-,N/A,,Overcast,20,2013-10-30 08:55:00
4:15 AM,33.8,32.0,93,29.96,4.0,Calm,Calm,-,N/A,,Overcast,0,2013-10-30 09:15:00
4:35 AM,33.8,32.0,93,29.91,5.0,North,4.6,-,N/A,,Overcast,350,2013-10-30 09:35:00
4:55 AM,33.8,32.0,93,29.90,7.0,NNE,4.6,-,N/A,,Overcast,20,2013-10-30 09:55:00
5:15 AM,33.8,32.0,93,29.89,7.0,NE,6.9,-,N/A,,Overcast,40,2013-10-30 10:15:00
5:35 AM,33.8,32.0,93,29.93,5.0,Calm,Calm,-,N/A,,Overcast,0,2013-10-30 10:35:00
5:55 AM,33.8,32.0,93,29.91,1.5,East,3.5,-,N/A,,Overcast,100,2013-10-30 10:55:00
6:15 AM,33.8,32.0,93,29.91,1.5,Calm,Calm,-,N/A,,Overcast,0,2013-10-30 11:15:00
6:35 AM,33.8,32.2,94,29.90,1.2,Calm,Calm,-,N/A,,Overcast,0,2013-10-30 11:35:00
6:55 AM,33.8,32.2,94,29.92,1.8,Calm,Calm,-,N/A,,Overcast,0,2013-10-30 11:55:00
7:15 AM,34.0,32.4,94,29.93,2.5,SW,5.8,-,N/A,,Overcast,230,2013-10-30 12:15:00
7:35 AM,34.2,32.5,94,29.91,2.0,SW,4.6,-,N/A,,Overcast,230,2013-10-30 12:35:00
7:55 AM,34.2,32.7,94,29.91,1.2,WSW,4.6,-,N/A,,Overcast,240,2013-10-30 12:55:00
8:15 AM,34.5,32.9,94,29.91,1.8,WSW,4.6,-,N/A,,Overcast,240,2013-10-30 13:15:00
8:35 AM,34.7,32.9,93,29.91,1.5,WSW,3.5,-,N/A,,Overcast,240,2013-10-30 13:35:00
8:55 AM,34.7,33.1,94,29.91,2.5,WSW,3.5,-,N/A,,Overcast,240,2013-10-30 13:55:00
9:15 AM,35.1,33.4,94,29.91,7.0,WSW,3.5,-,N/A,,Overcast,240,2013-10-30 14:15:00
9:35 AM,35.6,33.8,93,29.91,5.0,Calm,Calm,-,N/A,,Overcast,0,2013-10-30 14:35:00
9:55 AM,35.6,34.0,94,29.92,5.0,SSW,3.5,-,N/A,,Overcast,200,2013-10-30 14:55:00
10:15 AM,36.0,34.2,93,29.91,5.0,Calm,Calm,-,N/A,,Overcast,0,2013-10-30 15:15:00
10:35 AM,36.5,34.7,93,29.90,5.0,South,3.5,-,N/A,,Overcast,180,2013-10-30 15:35:00
10:55 AM,36.9,34.9,93,29.90,5.0,WSW,4.6,-,N/A,,Overcast,240,2013-10-30 15:55:00
11:15 AM,37.0,34.7,91,29.89,5.0,WSW,4.6,-,N/A,,Overcast,240,2013-10-30 16:15:00
11:35 AM,37.8,35.2,91,29.89,10.0,WSW,5.8,-,N/A,,Overcast,240,2013-10-30 16:35:00
11:55 AM,38.8,35.6,88,29.87,10.0,WSW,5.8,-,N/A,,Overcast,240,2013-10-30 16:55:00
12:15 PM,39.9,35.8,85,29.87,10.0,SW,9.2,-,N/A,,Overcast,220,2013-10-30 17:15:00
12:35 PM,40.3,35.8,84,29.87,10.0,SW,4.6,-,N/A,,Overcast,230,2013-10-30 17:35:00
12:55 PM,41.5,36.0,81,29.86,10.0,SW,8.1,-,N/A,,Overcast,230,2013-10-30 17:55:00
1:15 PM,42.3,36.3,79,29.85,10.0,WSW,9.2,-,N/A,,Overcast,240,2013-10-30 18:15:00
1:35 PM,42.6,36.1,78,29.84,10.0,WSW,9.2,-,N/A,,Overcast,240,2013-10-30 18:35:00
1:55 PM,43.3,36.7,77,29.83,10.0,SW,8.1,-,N/A,,Overcast,220,2013-10-30 18:55:00
2:15 PM,43.9,36.9,76,29.83,10.0,WSW,6.9,-,N/A,,Overcast,240,2013-10-30 19:15:00
2:35 PM,44.4,37.0,75,29.82,10.0,SSW,8.1,-,N/A,,Overcast,200,2013-10-30 19:35:00
2:55 PM,45.1,37.4,74,29.80,10.0,SW,5.8,-,N/A,,Overcast,230,2013-10-30 19:55:00
3:15 PM,45.7,37.2,72,29.80,10.0,WSW,9.2,-,N/A,,Overcast,240,2013-10-30 20:15:00
3:35 PM,46.4,37.2,70,29.79,10.0,WSW,6.9,-,N/A,,Overcast,240,2013-10-30 20:35:00
3:55 PM,46.9,37.2,69,29.79,10.0,WSW,5.8,-,N/A,,Overcast,250,2013-10-30 20:55:00
4:15 PM,47.3,36.7,67,29.78,10.0,West,6.9,-,N/A,,Overcast,270,2013-10-30 21:15:00
4:35 PM,47.7,37.2,67,29.78,10.0,West,6.9,-,N/A,,Overcast,260,2013-10-30 21:35:00
4:55 PM,47.7,37.0,67,29.78,10.0,West,4.6,-,N/A,,Overcast,260,2013-10-30 21:55:00
5:15 PM,48.2,37.4,66,29.78,10.0,WSW,5.8,-,N/A,,Overcast,240,2013-10-30 22:15:00
5:35 PM,49.5,37.2,63,29.78,10.0,West,8.1,-,N/A,,Mostly Cloudy,280,2013-10-30 22:35:00
5:55 PM,48.7,36.5,63,29.78,10.0,WNW,8.1,-,N/A,,Scattered Clouds,300,2013-10-30 22:55:00
6:15 PM,47.7,36.7,66,29.78,10.0,WNW,4.6,-,N/A,,Scattered Clouds,300,2013-10-30 23:15:00
7:55 PM,41.2,35.2,79,29.79,10.0,WSW,3.5,-,N/A,,Scattered Clouds,240,2013-10-31 00:55:00
8:15 PM,40.5,35.1,81,29.79,10.0,SW,5.8,-,N/A,,Clear,220,2013-10-31 01:15:00
8:35 PM,40.3,34.7,80,29.79,10.0,SW,8.1,-,N/A,,Clear,230,2013-10-31 01:35:00
8:55 PM,39.6,34.2,81,29.79,10.0,SW,6.9,-,N/A,,Clear,220,2013-10-31 01:55:00
9:15 PM,39.2,34.2,82,29.79,10.0,SSW,8.1,-,N/A,,Clear,210,2013-10-31 02:15:00
9:35 PM,39.2,34.5,83,29.78,10.0,SSW,8.1,-,N/A,,Clear,210,2013-10-31 02:35:00
9:55 PM,39.4,34.7,83,29.78,10.0,SSW,6.9,-,N/A,,Clear,210,2013-10-31 02:55:00
10:15 PM,37.2,32.9,84,29.78,10.0,Calm,Calm,-,N/A,,Clear,0,2013-10-31 03:15:00
10:35 PM,34.9,32.2,90,29.78,10.0,Calm,Calm,-,N/A,,Clear,0,2013-10-31 03:35:00
10:55 PM,34.7,32.2,91,29.77,10.0,Calm,Calm,-,N/A,,Clear,0,2013-10-31 03:55:00
11:15 PM,35.1,32.5,91,29.77,10.0,SW,4.6,-,N/A,,Clear,230,2013-10-31 04:15:00
11:35 PM,35.4,32.9,91,29.76,10.0,West,3.5,-,N/A,,Clear,280,2013-10-31 04:35:00
11:55 PM,35.1,32.4,90,29.76,10.0,SW,3.5,-,N/A,,Clear,220,2013-10-31 04:55:00